Terminal Aerodrome Forecast
Issued by NWS Melbourne, FL

Home | Current Version | Previous Version | Text Only | Print | Product List | Glossary On
Versions: 1 2 3 4 5 6 7 8 9 10 11 12 13 14 15 16 17
000
FTUS42 KMLB 291124
TAFMLB
TAF
KMLB 291124Z 2912/3012 32005KT P6SM SKC
     FM291500 35011G18KT P6SM SKC
     FM292300 02005KT P6SM FEW030=

USA.gov is the U.S. government's official web portal to all federal, state and local government web resources and services.